Theta_e
316 315 313 313 314 315 316 316 316 315 314 314 313 312 311 310 310 311 313 313 314 313 312 312 312 312 313 312 312 312 312 312 312 313 314 315 315 313 314 314 314 315 315 316 317 320 323 322 321 321 319 322 324 321 318 320 321 322 321 321 323 320 316 316 317 316 314 311 310 312 313 313 314 316 317 319 320 319 319 319 319 320 319 319 319 320
315 315 314 317 318 317 318 317 316 315 315 313 313 312 311 310 310 312 313 313 314 313 312 313 313 312 313 313 313 313 313 313 313 314 315 314 315 314 314 314 314 315 316 318 320 321 322 321 322 322 321 321 323 322 321 320 321 323 322 321 322 319 317 316 315 317 317 312 308 309 312 312 312 315 316 318 319 318 319 318 318 319 319 319 319 319
313 314 317 320 319 318 319 317 315 315 315 313 312 311 310 310 310 312 314 313 314 313 312 314 313 313 314 314 314 314 314 314 314 314 315 314 315 315 315 314 315 315 317 319 320 321 321 321 322 322 322 321 321 322 323 322 322 323 322 321 322 318 316 315 312 313 314 309 305 305 309 310 311 313 315 316 318 318 319 318 318 318 318 318 319 319
312 315 319 319 317 317 317 317 315 315 314 313 312 310 310 311 309 311 314 314 314 314 312 313 313 313 313 313 314 314 314 315 316 316 316 314 314 315 315 316 317 318 319 320 320 321 322 321 321 322 322 322 323 323 324 323 323 323 321 321 322 317 316 314 309 306 308 307 307 308 310 312 312 314 315 317 319 319 317 317 316 316 317 317 317 318
312 316 317 317 317 316 316 316 315 313 312 313 313 310 310 312 310 310 313 314 314 315 314 313 311 311 312 312 313 314 314 314 315 315 314 315 314 315 316 318 320 320 320 320 320 321 322 321 321 322 321 322 324 323 323 324 324 323 322 322 321 317 315 312 306 302 307 311 313 314 315 315 315 315 316 317 317 317 316 316 316 315 316 316 316 317
313 316 316 317 317 316 315 315 315 313 312 312 314 312 311 312 312 312 312 312 312 314 315 313 311 310 311 312 313 314 314 313 313 313 313 314 315 315 316 318 319 320 320 320 320 321 322 321 321 320 321 322 323 322 323 325 324 322 323 322 319 316 315 309 304 302 306 313 315 313 314 314 314 314 314 315 315 315 315 315 315 315 315 315 315 316
314 315 316 317 316 316 315 313 314 314 311 311 313 312 312 312 313 313 313 312 312 313 315 313 310 310 311 311 312 314 314 313 314 314 314 314 314 315 315 316 317 320 320 321 322 321 320 319 319 320 322 323 322 322 325 325 324 322 323 322 317 316 314 308 303 302 306 313 315 313 314 314 314 314 314 314 313 313 314 313 314 314 314 314 315 316
316 316 316 317 316 315 313 312 316 315 310 311 315 313 311 312 313 314 313 313 313 313 314 314 312 311 310 311 313 314 313 314 315 315 315 314 315 316 315 316 316 318 320 321 321 320 320 318 319 320 322 322 322 324 325 323 322 322 322 321 317 316 314 308 303 303 305 311 313 312 314 314 313 314 313 313 312 312 312 312 313 313 314 314 314 315
317 317 316 316 315 313 312 313 315 314 311 314 316 313 312 313 313 314 313 313 314 313 313 315 315 311 310 312 313 313 311 312 314 314 315 315 315 315 315 315 315 316 319 319 318 318 319 319 319 319 320 323 325 325 324 322 322 322 322 321 317 315 315 308 303 303 304 306 309 311 313 313 313 313 312 312 312 312 311 312 312 312 313 313 314 314
315 315 315 315 314 312 313 314 315 314 314 316 316 313 313 313 314 314 313 312 314 314 313 314 315 311 308 310 311 312 311 312 313 313 315 315 315 315 315 316 315 315 317 316 317 318 319 320 321 322 324 325 326 325 323 322 322 322 321 320 318 316 315 309 304 304 304 304 308 312 312 312 313 312 312 312 312 311 311 311 311 311 312 313 313 313
313 313 314 313 312 312 314 315 315 315 315 315 314 312 312 313 313 313 313 312 313 314 313 314 315 312 309 309 310 312 312 312 312 313 314 314 314 314 314 315 314 314 315 315 316 317 319 322 324 326 325 325 325 323 322 322 322 322 321 320 318 317 315 311 306 305 308 308 310 311 309 310 312 312 312 312 312 311 310 310 310 310 311 312 312 312
311 312 312 311 311 312 313 313 314 314 313 314 314 313 313 313 314 313 313 314 313 313 313 313 314 313 311 309 310 312 313 312 313 313 314 314 313 313 314 314 314 314 315 314 315 316 318 323 325 325 324 324 323 323 322 321 322 321 321 319 318 317 315 312 309 308 310 312 311 310 308 309 311 311 311 311 311 311 310 310 309 310 310 310 311 312
310 311 311 312 312 311 312 312 312 313 313 313 313 313 313 312 312 312 313 314 313 313 315 314 313 314 312 310 311 313 312 312 312 312 313 313 312 313 313 313 313 313 314 314 314 316 317 320 322 323 323 324 324 324 322 321 321 321 320 320 319 318 316 312 310 310 311 312 312 310 308 309 310 310 310 310 310 310 310 309 309 309 309 309 310 310
310 311 311 312 312 311 311 311 312 313 313 312 312 313 313 312 311 312 312 312 311 313 315 315 314 313 311 311 312 312 312 312 312 312 312 312 312 313 313 313 313 313 313 314 314 315 316 317 319 319 320 322 324 325 324 322 322 321 320 320 319 318 316 312 311 312 312 312 310 308 308 308 309 309 309 309 309 309 309 309 308 308 308 308 308 309
310 311 312 312 313 312 312 311 312 313 313 312 311 311 312 312 311 312 311 309 310 313 315 315 313 312 311 312 313 312 312 312 312 312 312 312 312 312 312 312 313 313 312 313 313 314 316 316 317 319 321 322 323 325 324 323 322 321 320 319 318 318 316 312 311 312 312 311 310 308 306 308 308 309 308 308 308 308 309 308 308 308 307 307 307 307
309 310 311 311 312 311 311 311 311 311 312 313 312 311 312 312 312 311 312 311 310 311 314 313 312 311 311 313 313 313 312 311 311 312 311 312 312 312 313 313 313 312 312 313 313 314 315 315 315 318 320 321 322 325 325 323 322 321 320 319 318 318 316 313 311 312 311 310 309 306 305 307 307 308 308 307 307 307 307 307 307 307 307 307 307 307
310 310 311 310 310 311 311 311 312 311 311 313 313 312 311 312 312 312 313 314 312 311 312 313 312 312 312 313 313 313 312 311 311 311 310 312 312 312 314 313 312 311 311 313 314 313 314 314 314 315 316 318 322 326 324 323 321 320 319 319 318 318 316 312 311 311 310 309 309 307 306 307 307 307 307 307 307 307 306 306 306 307 307 307 307 307
310 311 311 310 310 310 310 311 312 310 311 312 312 312 311 312 313 312 313 313 312 312 312 313 314 314 312 312 312 312 313 312 311 311 311 311 312 312 313 312 312 312 312 313 313 312 313 313 314 314 313 317 323 325 323 321 319 318 318 318 317 317 315 312 311 310 309 308 309 308 308 308 308 307 307 307 306 306 306 306 306 306 307 307 307 306
311 311 312 310 310 311 310 311 311 311 311 311 311 312 312 312 312 312 313 313 313 313 314 314 314 313 311 310 311 312 313 313 312 311 312 311 311 312 312 312 312 312 313 313 312 313 313 313 314 314 313 317 322 322 320 319 317 316 316 317 317 317 315 312 311 310 309 308 308 308 308 308 308 307 307 306 306 306 306 306 306 306 306 306 306 306
312 312 312 311 310 311 311 311 311 312 311 311 311 311 311 312 312 312 312 312 311 312 312 313 313 312 311 311 311 312 313 313 313 312 312 312 312 312 312 312 312 312 313 313 312 313 313 314 314 313 314 317 321 319 317 317 316 315 315 315 316 316 314 312 310 309 309 309 308 308 308 308 307 307 307 306 306 306 305 305 305 305 305 305 304 304
312 312 311 311 310 311 311 311 311 311 311 312 312 312 312 312 312 312 312 311 311 311 311 312 312 310 311 313 312 312 313 313 313 313 313 313 312 312 312 313 313 313 314 313 314 313 313 314 313 314 316 317 317 317 316 316 315 315 315 315 315 315 313 311 310 309 309 309 309 308 308 308 307 307 307 306 306 305 305 304 304 304 304 304 304 303
312 312 312 312 311 311 310 310 310 310 311 311 312 312 312 312 312 312 313 312 310 311 311 311 311 310 311 314 313 312 313 313 312 313 313 313 312 312 313 313 313 314 313 313 314 313 313 314 313 314 317 317 315 315 316 315 315 314 315 314 314 314 313 311 310 309 309 309 309 309 308 307 307 307 306 306 306 305 304 304 304 304 303 303 303 302
314 312 311 311 311 310 310 310 310 311 311 311 311 311 310 311 312 312 314 314 312 312 311 311 311 311 312 314 313 312 313 312 312 313 312 312 312 313 313 313 313 313 313 313 314 313 313 313 313 315 317 316 316 316 315 315 314 314 314 314 313 313 312 311 310 309 309 309 309 308 308 307 306 306 306 306 305 305 304 304 304 304 303 303 302 302
312 311 310 310 309 308 309 309 309 310 310 310 311 310 310 311 311 312 313 313 313 313 312 312 311 311 312 313 313 313 312 312 313 312 312 312 312 313 312 312 313 313 313 313 313 313 314 314 315 316 315 315 315 316 316 314 314 313 314 313 313 313 312 311 310 309 308 308 308 308 307 306 306 306 306 305 305 305 304 304 304 304 303 303 303 302
310 309 309 308 307 307 307 307 307 309 310 311 311 311 311 311 312 314 313 312 313 313 311 312 311 311 312 314 313 313 312 312 312 312 312 312 312 312 312 313 313 313 313 313 313 313 314 315 315 314 313 313 314 315 314 314 313 313 313 313 312 312 312 311 310 308 308 308 308 307 306 306 306 306 305 305 305 304 304 304 304 303 303 303 303 302
309 308 308 307 306 307 307 306 307 309 309 311 310 311 311 310 312 314 313 313 313 313 311 312 311 311 311 313 313 313 312 312 312 312 312 312 312 312 312 313 313 313 313 313 313 314 314 314 314 313 314 313 312 313 313 313 313 312 312 312 311 312 312 311 309 308 308 307 307 306 306 306 306 305 304 304 304 304 303 303 303 303 303 304 303 303
308 308 308 308 307 307 306 306 307 307 308 309 309 309 309 309 310 312 313 313 313 313 312 312 312 312 313 312 312 312 312 312 313 312 312 312 312 313 312 313 313 313 313 313 313 313 313 314 314 313 314 314 312 312 311 311 311 311 312 312 311 311 311 310 309 308 307 307 306 306 306 305 305 304 304 303 303 303 303 303 303 303 303 303 303 303
308 307 308 308 307 306 306 306 306 306 307 307 307 308 308 308 309 310 312 312 312 313 313 313 313 314 313 312 312 312 312 313 313 313 313 312 312 313 313 312 312 313 314 313 313 313 313 314 313 314 316 314 312 311 311 310 311 310 311 311 311 310 310 309 308 307 307 306 306 306 306 305 304 303 303 302 302 303 303 303 303 303 302 302 302 302
308 307 307 307 306 305 305 305 305 306 306 306 307 307 307 308 308 309 310 310 311 312 312 312 313 314 312 310 310 311 312 313 314 315 315 314 313 313 313 312 312 313 313 312 312 312 313 313 313 314 316 314 311 311 311 310 310 310 311 310 310 309 309 308 307 306 306 306 306 306 305 304 303 303 302 302 302 302 302 302 302 302 302 302 301 301
307 306 305 305 305 305 305 304 305 305 305 305 306 306 307 307 308 308 309 309 310 311 311 312 313 313 311 310 309 310 311 312 312 313 313 313 314 313 312 313 313 312 312 311 312 312 313 313 312 313 314 313 311 311 311 310 309 309 310 310 309 308 307 306 306 306 305 305 306 305 304 303 303 303 302 303 302 302 302 302 301 301 301 301 301 301
305 305 305 304 305 305 304 304 304 304 304 304 305 306 306 307 307 308 309 310 311 312 312 313 314 313 311 311 311 311 311 312 312 311 312 313 313 312 312 313 312 312 311 311 312 312 312 312 311 310 311 311 312 310 310 309 308 308 309 309 308 307 306 305 305 305 305 306 305 304 303 303 303 303 303 302 302 302 301 301 301 301 301 301 301 301
304 304 304 304 304 304 304 304 304 304 304 304 306 307 307 308 308 309 309 309 311 313 313 313 313 312 311 311 312 311 311 311 311 311 312 312 311 311 312 312 312 312 312 311 312 311 311 310 310 310 310 310 311 310 309 309 308 308 308 308 306 305 305 304 305 305 305 305 304 304 303 303 303 303 302 302 302 301 301 301 301 301 301 301 300 300
303 303 303 303 303 303 303 303 304 305 305 305 306 307 308 309 309 309 309 309 310 311 311 310 310 310 310 310 311 311 311 311 311 311 312 312 313 313 312 312 312 312 312 311 311 311 310 310 310 311 311 310 310 309 308 308 308 307 307 307 305 304 304 304 305 305 305 305 304 303 303 303 303 302 302 302 301 301 300 300 300 300 300 300 299 299
303 303 302 302 303 303 304 304 305 305 305 305 305 306 307 308 309 309 309 309 309 308 309 309 309 309 310 310 311 311 311 310 312 312 312 313 315 315 313 312 312 312 311 311 310 310 310 311 311 312 312 312 311 309 308 307 307 308 307 306 305 304 304 304 305 305 305 304 303 303 303 303 302 302 301 301 300 300 300 300 299 299 299 299 298 298
303 303 303 302 302 302 303 304 304 304 305 305 305 306 306 307 307 308 308 307 307 307 308 308 309 309 310 309 310 311 311 311 312 312 311 311 313 314 312 311 312 312 311 311 311 310 311 313 313 313 313 312 311 309 307 307 307 307 306 305 304 304 304 304 305 305 304 303 303 302 302 302 301 301 301 300 300 299 299 299 298 298 298 297 297 297
302 302 302 302 302 302 302 303 304 305 305 304 305 306 306 307 307 307 307 307 306 307 308 307 307 308 309 309 309 310 310 311 311 310 310 311 312 313 312 311 311 310 311 312 311 312 313 313 313 312 312 311 310 309 307 306 307 306 305 304 304 304 304 304 304 304 303 302 302 302 302 301 301 301 300 300 299 299 299 299 298 298 297 297 296 296
302 303 303 303 303 303 302 302 303 304 303 303 306 308 309 309 308 308 308 308 307 307 308 308 308 308 308 309 310 311 311 312 311 310 310 310 310 311 311 311 311 311 312 312 313 313 312 312 311 311 310 310 309 308 306 306 306 305 304 304 304 304 304 304 304 303 302 301 302 302 302 301 301 300 300 299 299 299 299 298 298 297 297 296 296 296
303 303 304 304 304 303 303 303 304 303 302 302 307 309 309 309 308 308 307 307 307 308 308 308 309 310 310 310 310 310 312 312 311 311 310 309 310 310 311 311 311 312 312 312 312 311 311 311 310 309 309 308 308 307 307 306 305 304 304 304 304 304 304 303 303 302 301 301 301 301 301 301 300 300 300 299 299 299 298 298 298 297 297 296 296 296
302 302 303 303 302 301 302 303 303 302 302 303 307 309 308 307 308 307 306 305 306 308 308 308 308 308 309 310 310 311 312 311 311 311 310 310 311 311 311 310 310 311 312 311 311 310 310 310 309 308 308 307 307 307 306 306 304 304 304 304 304 304 303 303 302 301 300 300 301 301 301 300 300 300 300 299 299 298 298 298 297 297 296 296 296 295
301 302 302 303 302 302 302 302 302 302 302 305 307 307 306 306 308 307 305 304 306 307 307 308 308 307 308 308 310 311 311 311 311 312 311 311 311 311 311 311 310 311 311 310 309 309 308 308 308 308 308 307 307 307 306 305 304 304 304 304 304 303 303 303 301 300 299 299 301 301 300 300 300 300 299 299 298 298 298 297 297 296 296 296 295 295
300 301 301 302 302 302 302 302 302 302 303 306 306 305 305 306 306 306 305 305 306 306 306 307 308 307 307 307 308 310 310 310 311 312 312 311 312 311 311 311 311 310 309 309 308 307 307 307 308 308 308 306 306 306 305 304 304 304 304 304 303 303 302 301 300 299 299 299 300 300 300 299 299 300 299 298 298 298 297 297 296 296 296 295 294 294
300 300 300 300 300 300 300 301 301 301 304 306 305 304 305 305 304 305 305 305 306 306 306 307 307 306 306 306 306 307 310 310 310 311 311 311 311 311 310 310 310 308 307 307 307 306 307 308 308 308 307 305 305 305 305 304 304 304 304 303 303 303 301 300 299 298 299 299 299 299 299 299 299 299 298 298 298 297 297 296 296 295 295 294 294 293
300 300 300 300 300 300 300 301 301 301 303 306 306 304 304 304 304 304 305 305 305 306 306 306 306 306 306 306 305 306 308 310 311 310 311 310 310 309 309 308 307 306 306 306 307 307 307 307 308 308 307 305 304 304 304 304 304 303 303 303 303 302 301 299 298 298 299 299 299 299 299 299 298 298 298 297 297 297 297 296 295 294 294 294 293 293
300 300 299 299 300 300 300 301 301 301 302 304 305 305 305 304 304 304 305 304 305 305 305 305 305 305 305 306 305 305 307 309 311 310 310 310 309 308 306 306 306 306 306 306 306 306 306 307 307 308 307 304 303 303 303 303 304 303 303 303 302 301 299 299 298 299 299 298 299 299 298 298 298 297 297 297 297 296 296 295 295 294 294 293 293 292
300 300 300 300 300 301 300 300 301 302 301 302 304 305 305 305 305 305 305 305 305 306 305 304 305 305 305 305 306 306 307 309 311 310 310 309 307 306 305 305 305 306 306 306 306 306 306 306 306 307 307 305 303 303 303 303 303 303 303 302 301 300 299 299 299 299 299 298 298 298 298 298 298 297 297 297 296 296 296 295 294 294 293 292 292 292
300 300 301 301 301 300 301 301 301 302 302 303 304 304 304 305 305 306 306 305 305 306 305 304 305 305 304 304 305 306 308 309 310 309 308 307 305 305 305 305 306 306 306 306 306 306 306 306 307 307 307 306 304 303 303 303 303 303 303 301 300 299 299 299 299 298 298 297 297 298 298 298 297 297 296 296 296 296 296 295 294 293 292 292 291 291
299 300 301 302 301 301 301 301 301 302 302 302 302 302 303 305 305 305 305 305 305 305 305 305 305 304 304 304 303 304 307 308 309 307 306 305 305 305 305 305 306 306 305 306 306 306 305 306 307 307 308 307 305 303 303 302 302 302 302 301 300 299 299 299 298 298 298 297 297 297 297 297 297 296 296 296 296 296 295 295 294 293 292 291 291 291
300 300 301 301 301 301 300 300 300 301 301 301 302 303 304 305 304 304 305 305 305 305 304 305 305 304 304 304 304 304 306 307 307 306 305 305 305 305 304 305 305 305 305 305 306 306 306 306 306 307 307 307 306 304 302 302 302 302 302 301 300 300 299 298 298 298 298 297 297 297 297 296 296 296 296 296 296 296 295 294 294 293 292 292 291 290
300 300 299 299 299 299 299 299 300 301 302 302 302 303 304 304 304 304 304 304 305 304 304 304 305 304 304 305 306 306 306 305 305 305 304 305 305 304 304 305 305 305 305 305 305 306 306 306 306 307 307 307 306 304 302 302 301 301 301 301 300 300 299 298 298 298 298 297 297 297 296 296 296 296 295 295 296 296 295 294 294 293 292 292 292 291
299 299 299 299 299 299 299 299 300 301 301 301 302 303 303 304 304 304 304 304 305 304 303 303 304 303 303 304 306 306 305 305 305 305 304 305 304 305 305 305 305 305 305 305 305 305 306 306 306 307 307 306 304 303 302 302 301 301 301 301 300 299 299 299 298 298 298 297 297 296 296 296 296 295 295 295 296 295 295 294 294 293 292 292 292 292
299 300 299 299 299 299 299 299 300 300 301 301 302 303 303 303 304 304 304 305 305 304 303 303 303 302 301 302 304 305 305 305 305 305 304 304 305 305 305 304 304 304 304 305 305 305 306 306 306 306 306 304 302 302 302 301 301 301 301 300 299 300 299 299 299 299 298 298 297 296 295 296 296 295 295 295 295 295 295 294 294 293 292 292 292 292
Wind_Speed
2 5 6 3 2 3 3 1 2 3 2 0 1 3 4 4 5 2 5 4 0 5 9 10 10 12 12 10 10 10 11 10 11 11 10 9 10 11 12 12 12 13 12 12 13 14 15 17 16 15 14 12 11 12 13 11 9 8 7 6 6 4 2 2 2 2 5 8 9 10 11 11 10 10 8 6 5 5 4 4 5 3 3 4 4 5
3 6 3 2 4 5 5 4 4 3 2 3 3 4 5 5 3 2 3 4 3 5 7 7 9 12 13 12 11 10 11 12 13 13 12 12 12 12 13 14 14 12 9 8 10 13 14 15 16 15 14 14 13 12 13 12 11 9 8 6 5 4 2 2 2 2 3 6 9 9 8 10 10 9 8 7 6 6 4 5 5 4 4 4 4 4
6 5 4 6 5 7 6 5 5 5 4 4 4 4 4 3 2 3 4 4 3 4 6 5 8 11 12 12 12 12 13 13 13 12 11 12 12 11 12 12 12 11 8 9 10 11 13 14 16 16 15 16 15 13 11 12 11 10 9 7 6 4 2 2 3 3 3 6 10 11 9 10 9 7 8 8 6 5 5 5 5 6 6 6 5 4
5 2 7 6 6 8 7 6 6 5 4 5 4 5 3 2 2 3 5 5 3 4 7 6 7 10 11 12 13 15 14 13 11 10 10 11 12 12 11 9 9 9 8 9 9 10 11 13 16 17 16 16 15 13 12 11 12 11 9 8 7 4 2 2 3 5 6 8 10 11 10 10 9 7 7 7 5 5 6 6 6 7 7 7 6 6
1 6 6 6 7 7 7 8 7 5 5 5 4 6 4 2 4 3 3 4 4 5 6 8 9 8 8 10 10 9 10 11 10 11 11 12 12 12 11 9 8 8 7 7 8 9 10 13 15 17 17 16 15 15 14 12 12 11 10 9 8 5 3 1 2 5 6 6 6 6 6 6 7 7 6 6 6 7 8 8 8 8 8 7 7 7
2 5 4 7 7 8 8 7 8 6 5 4 6 6 4 2 4 2 2 4 5 6 5 4 7 3 5 6 6 5 6 9 10 12 13 12 12 12 11 11 10 8 6 6 7 9 11 13 15 17 17 16 16 16 14 13 12 11 11 11 9 7 4 3 1 4 5 4 4 5 5 5 6 6 6 7 7 8 8 8 9 9 8 8 8 8
3 4 4 6 7 8 8 7 7 6 7 3 4 5 4 4 4 4 5 5 4 2 3 3 6 2 2 5 7 6 6 8 9 10 12 11 11 11 11 11 10 8 7 6 7 8 10 13 14 16 16 17 17 15 13 13 13 12 12 12 11 8 6 5 3 2 4 4 4 5 5 4 5 5 5 5 6 7 7 9 9 9 9 8 8 8
5 7 5 5 7 8 8 7 6 7 7 1 5 4 6 6 6 5 5 5 3 4 2 7 6 5 6 3 5 6 7 8 9 10 11 10 10 11 11 10 10 9 8 7 7 8 10 12 14 15 16 17 15 14 13 13 14 14 13 13 12 10 8 7 4 2 3 3 2 4 3 3 3 3 3 4 4 6 7 8 9 9 9 9 8 8
4 7 7 6 7 7 6 2 6 9 6 2 5 3 4 5 5 5 5 5 2 4 5 7 6 6 6 3 6 7 8 9 10 10 10 10 10 10 10 10 10 10 8 8 8 9 10 12 13 14 14 14 13 13 13 13 14 14 14 14 14 12 10 8 6 4 2 2 2 2 2 2 2 2 2 2 3 4 6 7 9 10 10 9 9 8
3 2 3 6 6 5 2 3 3 7 3 4 6 4 4 4 4 5 6 5 2 5 7 5 7 6 5 3 5 7 7 8 9 8 9 9 9 9 10 10 10 10 9 9 9 9 10 11 11 10 11 11 11 12 12 12 12 13 14 14 15 13 11 10 9 6 4 2 2 0 1 2 2 2 2 2 2 3 4 7 8 9 9 9 9 9
4 3 1 5 6 2 3 5 2 2 3 6 7 5 5 6 5 5 5 4 4 7 7 5 7 6 5 3 3 4 4 5 6 7 8 9 9 9 9 10 11 11 10 10 10 10 10 9 9 9 10 10 10 11 11 11 12 13 14 15 15 14 12 11 10 8 6 4 3 2 0 1 1 1 2 2 2 3 4 6 7 8 9 9 9 10
6 6 4 6 6 4 4 4 2 3 6 6 6 6 6 6 5 5 5 5 6 7 4 6 6 6 6 3 0 2 3 4 5 6 7 8 9 10 10 10 11 11 11 11 11 10 10 9 8 9 10 10 10 11 12 12 13 14 15 16 16 16 14 12 11 9 7 6 4 2 1 1 1 1 1 2 2 3 3 5 5 6 8 8 9 9
6 8 7 7 7 9 8 6 4 5 7 7 7 7 6 6 6 6 6 6 7 5 5 6 6 5 7 7 5 4 5 6 6 6 6 7 8 9 10 11 11 11 11 11 11 10 10 9 9 11 11 11 12 13 14 14 15 15 16 17 17 16 15 13 11 10 8 7 5 3 2 2 1 1 2 2 3 3 4 4 5 6 7 8 8 9
4 5 9 8 6 10 11 7 5 6 7 9 8 7 7 7 7 8 6 6 8 3 5 6 5 5 6 8 9 9 7 8 9 8 8 8 9 9 9 10 10 11 11 10 11 11 10 10 11 12 13 12 12 14 15 15 15 15 15 16 17 16 15 14 12 11 9 8 6 4 3 3 2 2 3 3 3 4 4 5 6 6 7 8 8 9
5 3 8 7 3 8 13 10 8 6 6 10 9 8 8 8 8 8 6 8 8 2 6 6 4 5 4 2 4 6 5 7 9 9 8 8 9 10 10 10 9 10 11 11 11 11 11 12 13 12 12 11 11 13 13 13 13 14 14 16 18 17 16 15 13 11 10 8 6 4 3 3 3 3 4 4 4 4 5 5 6 7 8 9 9 9
7 5 5 5 2 5 10 10 9 8 6 7 8 8 10 9 8 7 4 4 5 3 4 6 4 6 5 2 4 6 6 8 9 9 10 10 10 10 10 11 11 11 12 11 11 12 12 13 14 13 11 11 10 10 11 11 12 13 14 15 17 18 16 16 14 12 10 8 7 5 3 3 4 4 4 5 5 5 6 7 7 8 9 9 10 10
7 3 4 3 3 5 7 6 5 8 5 3 6 9 8 8 9 9 5 1 1 7 7 7 7 7 7 7 10 12 11 11 11 11 12 11 11 11 10 11 12 12 12 12 12 12 12 14 15 14 14 13 10 9 10 10 11 12 12 13 16 17 16 15 14 12 10 8 7 5 4 4 5 5 6 6 6 7 7 8 8 9 9 10 10 11
5 6 3 5 6 4 3 5 7 9 7 4 7 6 4 5 7 8 7 5 5 9 9 8 10 9 8 7 8 13 14 13 14 14 13 12 11 11 10 11 12 13 13 13 13 13 13 14 15 16 16 14 10 8 8 9 9 10 10 12 15 17 16 15 13 11 10 8 7 6 5 5 6 6 6 7 7 7 8 8 9 9 10 10 11 11
2 7 6 6 5 1 3 5 8 8 9 9 7 4 4 8 8 7 8 8 9 10 8 9 12 10 10 7 6 11 13 13 14 14 13 13 12 11 10 12 13 13 12 12 13 12 12 13 15 16 15 12 8 7 7 8 8 8 9 10 13 15 15 14 13 11 9 8 7 6 6 6 6 6 7 7 7 8 9 9 10 10 11 12 12 13
2 7 6 3 2 1 2 6 8 6 8 9 7 6 8 9 9 9 8 8 10 11 10 11 12 10 9 10 9 10 10 11 13 13 13 13 12 11 10 11 12 12 11 11 11 12 12 14 16 16 15 11 8 7 7 7 7 8 9 10 12 14 14 14 13 11 9 8 7 6 5 5 6 6 7 7 8 9 9 10 11 12 13 14 15 15
4 6 7 6 5 6 6 6 9 9 6 7 7 8 9 8 8 10 9 9 11 11 10 11 12 10 8 7 10 11 9 10 12 12 12 11 12 12 12 11 11 11 12 11 11 12 12 14 16 14 10 8 8 7 7 7 7 8 9 11 13 15 15 14 13 11 9 8 7 6 5 5 6 7 8 8 9 10 11 12 14 15 16 16 17 17
4 6 7 9 8 9 10 10 11 10 7 7 8 8 10 9 9 10 11 11 11 12 11 11 13 11 6 3 7 9 8 9 11 12 12 11 12 12 12 12 12 11 12 12 12 12 11 12 14 11 8 7 6 6 7 7 7 8 10 11 13 15 16 15 13 11 9 8 7 6 5 5 6 7 8 9 10 11 12 14 16 17 18 19 20 19
4 6 8 10 11 13 16 15 14 15 14 13 11 11 11 11 10 10 11 10 10 12 12 12 14 12 6 5 7 9 9 10 11 12 11 11 11 12 12 13 13 12 12 12 12 12 11 12 12 9 8 7 5 5 6 7 7 9 10 11 13 15 15 15 13 11 9 8 7 6 5 6 7 8 9 10 11 13 14 16 18 19 20 21 22 22
2 6 8 10 11 12 15 16 16 18 16 13 12 11 11 11 11 11 11 11 9 10 11 12 13 11 8 8 9 10 11 11 11 13 13 11 9 11 13 13 13 13 13 13 12 11 11 12 11 9 9 8 5 5 5 6 7 8 10 11 12 13 14 14 12 10 8 7 6 5 6 6 7 8 10 11 12 15 17 18 19 20 21 21 22 23
2 5 7 8 10 9 10 10 10 12 9 6 8 9 10 12 13 12 11 11 10 13 16 15 12 10 8 7 9 11 13 13 13 14 14 12 10 10 12 13 13 14 13 14 13 12 12 12 11 11 11 9 5 5 6 6 7 8 9 10 11 12 13 13 12 9 7 6 6 6 6 7 8 9 10 12 14 17 19 19 20 21 22 22 23 24
5 7 7 8 10 10 9 7 6 5 5 5 9 11 12 14 14 11 9 9 10 14 18 16 13 12 13 12 11 12 13 14 15 15 14 14 13 12 12 12 13 12 13 14 14 13 12 10 10 11 9 6 4 5 6 7 7 7 8 9 10 11 12 12 11 9 7 6 6 6 7 7 8 9 11 14 16 18 19 20 21 22 22 23 24 25
5 8 9 10 12 12 13 13 11 10 9 10 13 15 15 15 14 11 8 9 10 12 14 15 15 16 17 17 16 15 14 14 15 15 15 13 12 12 11 12 13 12 12 13 12 12 11 10 11 10 7 4 5 6 6 6 7 8 8 10 10 11 11 11 9 8 6 6 6 6 7 7 8 10 12 14 16 18 19 20 21 22 23 24 25 27
6 9 11 13 15 16 17 19 17 15 15 15 16 17 17 16 16 14 12 14 13 11 12 14 15 15 16 18 19 19 18 16 14 14 14 13 13 13 12 13 14 13 12 12 12 12 13 12 11 9 7 7 7 7 7 7 7 8 8 9 10 11 11 10 8 7 6 6 6 6 7 7 8 10 13 14 16 17 19 20 22 23 24 25 26 28
6 10 12 14 16 18 19 20 19 16 16 17 18 19 19 19 19 17 17 19 16 13 13 15 15 14 14 19 22 21 21 19 16 14 13 14 14 13 14 15 15 14 14 14 13 13 13 13 10 7 8 9 8 8 8 8 7 8 8 9 10 11 11 9 8 7 6 5 6 6 6 7 9 11 13 15 16 17 19 21 22 23 24 25 26 28
5 7 9 11 14 18 19 19 19 18 17 17 19 21 20 20 20 19 19 20 20 19 18 19 20 17 15 20 24 21 20 19 17 16 15 14 15 15 16 16 15 15 14 14 14 13 11 10 9 8 8 8 8 9 8 8 7 8 10 10 11 11 10 9 7 6 5 5 5 5 7 8 9 12 13 13 15 18 20 22 23 24 25 26 26 27
6 7 8 8 10 15 18 18 18 18 18 18 19 21 21 20 20 19 18 17 18 19 18 19 19 16 15 20 22 21 19 19 19 20 17 15 18 19 18 16 15 14 14 13 12 10 9 9 8 7 7 7 7 8 7 7 8 9 10 11 11 11 9 8 6 5 5 4 4 5 7 8 10 12 12 13 16 18 20 22 23 24 25 26 26 26
7 8 9 9 9 13 15 16 17 17 17 18 19 21 21 19 16 15 14 14 14 14 15 17 15 13 15 17 19 19 20 20 21 21 17 17 21 20 17 15 15 13 12 11 9 9 9 9 8 7 6 6 5 6 7 8 9 10 12 12 11 10 8 7 6 5 4 4 5 6 7 8 10 11 13 14 16 18 20 22 23 24 25 25 26 27
8 8 8 8 9 12 15 15 14 13 13 14 14 15 17 17 16 16 14 14 15 13 13 13 13 14 16 16 17 18 19 19 19 17 15 16 17 17 15 14 13 11 10 10 10 9 8 7 7 6 4 3 3 4 6 8 10 12 12 12 11 9 8 7 5 4 4 4 5 6 7 8 10 12 13 14 16 18 20 22 23 24 24 25 26 27
10 10 9 9 9 12 15 14 11 11 12 12 10 9 11 13 14 15 14 14 16 15 14 15 16 18 19 18 17 17 16 16 13 9 8 7 8 11 13 12 11 10 10 10 9 8 7 5 5 4 3 2 2 3 5 8 10 12 12 11 11 9 7 6 4 4 4 4 5 6 7 9 11 13 13 14 16 19 21 22 23 24 24 25 26 26
11 11 10 9 9 11 12 11 11 12 11 10 10 11 13 14 15 16 17 18 19 18 19 20 21 21 21 20 19 18 18 17 10 6 7 6 7 11 11 11 11 11 10 9 8 7 5 4 3 3 2 2 2 5 7 9 11 13 12 11 10 8 6 5 4 4 4 4 5 6 8 10 11 12 13 15 17 20 21 23 25 25 26 27 27 27
12 11 9 9 9 10 10 10 11 11 10 14 15 13 12 13 13 13 15 17 17 17 18 19 20 21 22 21 20 19 17 13 8 8 9 7 7 10 10 10 10 11 9 8 7 6 4 3 2 2 2 2 3 6 9 12 13 13 12 11 9 7 5 4 4 4 4 4 5 7 9 11 12 13 14 17 19 21 22 25 26 28 29 29 28 27
13 11 9 9 9 10 10 12 11 11 14 15 10 5 5 5 6 6 9 13 14 11 11 13 15 17 17 18 19 15 8 4 5 9 9 7 7 8 8 10 9 10 9 7 7 6 4 2 1 2 2 3 5 7 10 13 14 13 12 10 8 6 5 4 4 4 4 4 6 7 9 11 12 14 16 18 20 22 23 25 27 29 30 29 28 27
12 11 9 9 9 9 10 10 10 11 12 8 2 2 1 3 3 3 7 12 9 4 7 9 11 13 13 14 17 10 2 1 6 9 9 9 9 8 9 11 10 9 9 8 6 4 3 2 1 2 3 4 6 7 11 14 15 13 12 10 8 6 5 4 3 4 4 5 6 8 10 11 13 15 16 18 20 22 23 26 28 30 29 28 29 29
12 10 9 9 10 9 10 10 9 9 9 5 1 2 2 3 2 3 9 10 4 6 10 12 14 14 12 12 14 8 3 5 8 9 8 10 11 9 10 10 9 9 8 7 5 3 2 1 1 2 3 4 6 9 12 15 15 13 11 9 7 6 4 3 3 4 4 5 6 8 10 12 13 14 16 19 21 22 23 26 30 30 29 28 29 29
11 8 8 10 10 9 10 10 8 8 9 6 4 5 7 5 3 5 10 7 7 12 14 12 14 16 14 13 13 7 6 9 8 5 7 11 11 9 9 9 8 7 6 6 6 3 1 2 2 3 3 4 6 9 13 15 14 12 10 8 6 5 3 2 2 3 4 5 6 7 9 11 13 14 16 19 21 22 23 26 29 30 29 28 29 29
9 7 7 9 10 10 11 9 8 8 7 4 5 8 8 6 4 7 8 7 11 16 15 12 13 14 13 14 12 7 8 10 4 7 10 11 11 9 9 8 7 6 5 4 5 2 2 3 2 3 3 3 6 11 14 14 13 11 9 7 6 4 2 1 1 3 4 5 6 7 9 11 13 14 16 18 20 22 23 26 28 28 28 29 29 29
7 6 7 8 8 9 9 8 9 8 2 3 7 9 6 4 6 6 7 10 12 15 15 15 14 12 12 13 11 8 10 10 3 12 13 11 10 9 8 7 6 5 4 3 3 1 2 2 2 3 2 3 7 12 14 13 13 11 9 7 5 4 2 1 1 2 3 5 6 7 9 10 12 14 15 17 20 21 22 24 25 26 28 29 29 29
5 5 7 7 7 8 8 8 9 7 1 4 9 8 2 4 7 8 9 11 12 13 15 14 12 11 10 11 12 10 10 10 4 10 12 10 9 8 7 6 5 3 3 2 1 2 0 2 3 3 2 3 8 13 14 13 13 11 8 7 5 4 3 1 1 2 3 5 6 7 9 10 12 13 15 17 19 20 22 24 24 25 27 28 28 29
6 6 7 6 3 5 7 7 6 6 6 8 10 7 5 7 9 10 11 11 10 11 12 11 11 11 9 10 11 9 9 10 6 6 9 8 8 8 6 6 4 2 2 2 1 1 0 3 3 2 3 4 8 12 14 13 12 11 8 6 6 5 3 1 0 2 4 5 6 7 9 9 11 13 15 17 18 19 21 22 23 24 26 27 27 27
5 5 6 6 4 5 8 9 10 11 12 12 10 8 9 10 11 11 12 10 9 9 9 10 12 12 11 10 10 7 7 10 7 5 7 6 7 7 5 5 4 2 2 1 1 1 2 3 2 3 5 5 8 12 13 12 12 11 8 6 6 5 3 2 0 2 4 6 7 7 8 9 10 12 14 16 17 18 20 20 20 22 25 26 26 26
7 7 6 6 6 8 11 13 14 14 13 12 10 9 10 10 9 10 10 9 8 9 9 10 12 12 12 12 10 7 7 10 6 5 6 5 6 6 4 4 4 3 2 2 2 2 2 2 2 5 6 7 8 11 12 10 10 10 8 7 7 5 4 3 1 2 4 6 7 7 8 9 10 12 14 15 16 17 19 20 19 20 23 24 25 25
9 9 9 8 7 8 8 9 11 12 13 13 12 12 11 7 4 4 6 8 9 10 10 11 12 11 11 11 9 7 7 8 5 5 6 4 5 5 5 4 4 4 3 4 4 3 1 1 3 5 7 8 9 11 11 10 9 9 9 9 8 7 5 4 3 3 5 6 7 7 8 9 10 12 13 14 15 17 19 20 18 18 20 21 22 23
5 3 5 8 10 10 11 13 14 14 15 14 11 8 7 5 4 5 8 9 10 10 10 11 11 10 10 10 9 6 4 5 3 3 5 4 5 5 5 5 5 4 4 5 5 4 2 0 1 4 7 9 10 11 12 11 10 10 10 9 8 7 6 4 3 4 5 6 7 8 9 9 10 11 12 14 14 16 18 20 19 18 18 19 21 23
7 4 6 10 11 12 13 15 14 13 12 10 7 6 5 5 8 10 11 11 11 10 10 11 11 9 9 10 6 4 3 1 1 2 2 3 4 5 6 6 5 4 4 4 4 4 4 3 1 2 5 7 9 11 12 12 11 11 11 10 9 8 6 5 3 3 5 5 6 8 9 9 10 11 12 13 13 15 17 19 20 20 19 20 22 24
10 10 10 10 10 10 10 10 10 10 9 9 9 9 9 9 9 11 12 11 11 10 10 11 11 9 8 7 5 0 3 3 3 3 2 3 4 5 6 5 4 3 3 3 3 4 5 5 3 3 5 7 9 11 12 12 11 11 11 10 9 8 6 4 3 3 4 5 6 8 8 9 9 11 11 11 12 15 17 18 19 20 20 21 22 23
10 11 10 9 10 11 12 12 12 10 10 12 12 11 10 10 11 11 10 10 9 8 8 9 10 8 5 5 7 6 2 4 4 3 3 4 4 5 6 5 4 3 3 3 3 4 5 6 6 6 8 9 10 11 12 12 13 12 12 11 10 8 6 4 4 4 4 5 5 6 7 8 9 10 11 11 11 13 16 18 19 20 20 21 22 22
Wind_Direction
256 219 208 221 185 148 120 66 10 42 64 168 228 250 253 251 255 198 116 108 152 245 233 232 237 241 241 227 212 197 192 218 237 240 241 239 245 249 249 251 247 244 242 228 213 199 192 192 192 196 204 206 207 216 222 219 211 201 191 178 165 149 84 55 52 28 29 25 14 8 6 2 359 355 354 356 1 4 359 347 345 337 318 306 286 268
240 237 200 86 63 89 108 110 117 130 159 210 237 246 238 239 247 123 122 132 147 247 238 223 242 247 245 244 235 219 210 222 234 238 239 241 247 251 253 253 249 247 237 209 191 188 191 191 188 192 201 207 209 213 217 217 215 207 200 193 172 153 121 89 65 58 55 32 18 11 4 357 355 353 350 346 343 348 352 351 353 347 332 321 303 283
218 226 107 94 92 103 118 142 161 170 185 218 237 250 247 224 203 139 154 177 177 243 242 221 246 254 248 246 241 234 232 233 236 240 245 249 253 253 252 249 245 245 225 193 186 186 191 191 189 192 199 209 213 210 209 211 212 208 204 197 175 157 136 87 49 58 57 27 19 14 8 4 0 355 346 342 338 345 351 348 349 344 332 325 312 293
221 142 95 118 148 143 148 164 177 185 203 228 248 254 248 133 238 222 152 170 196 238 269 273 270 266 254 248 244 238 240 241 236 237 243 249 252 251 249 248 243 242 225 202 194 185 187 190 189 192 199 205 207 206 205 204 205 207 207 192 170 162 146 91 32 41 36 22 18 11 7 9 7 1 350 347 349 346 345 339 332 330 325 321 311 296
203 81 100 149 168 176 176 176 192 218 221 213 232 261 270 156 243 282 116 163 209 213 252 276 272 258 236 237 238 227 231 236 228 227 232 233 238 241 243 247 245 242 236 214 197 185 186 188 186 192 199 201 202 206 208 204 202 205 203 188 174 171 162 137 30 40 38 28 23 11 5 10 7 5 1 357 354 345 338 331 325 324 321 315 308 300
105 84 145 163 178 199 194 197 209 231 253 218 204 235 258 211 213 234 176 211 234 203 190 266 279 239 175 209 218 191 200 216 212 217 225 225 224 227 230 236 236 232 230 215 199 191 185 184 187 193 196 199 205 209 207 201 199 201 195 188 187 182 173 182 144 53 48 38 30 22 17 13 6 5 7 359 347 340 333 326 322 321 320 312 306 302
109 124 182 173 192 207 213 232 211 213 263 254 160 179 210 218 209 206 215 231 262 241 152 237 279 274 213 224 204 188 200 203 200 208 220 222 217 218 223 227 226 220 210 199 194 190 185 186 190 192 194 200 207 205 199 195 198 197 189 189 194 188 180 195 193 85 61 49 28 26 28 23 16 8 3 355 338 332 326 321 321 319 319 314 306 302
127 147 176 192 206 211 225 237 186 197 253 261 109 146 186 201 209 211 231 241 285 329 228 214 244 275 275 245 172 190 213 208 206 208 214 216 209 211 218 217 214 209 199 191 189 186 185 188 191 193 197 202 204 196 191 197 202 197 190 191 195 189 185 197 202 160 88 74 28 23 35 32 23 9 357 349 334 330 323 317 318 315 313 311 306 302
146 174 182 194 211 221 232 235 153 194 240 100 108 149 182 201 226 222 243 253 264 306 261 199 199 258 263 187 155 187 212 221 217 209 207 207 202 204 208 207 207 202 197 195 191 187 187 190 195 199 200 197 193 191 194 200 202 197 191 191 193 190 189 198 205 199 148 92 42 17 37 35 16 359 354 349 331 328 323 316 314 312 310 307 304 301
145 185 191 204 227 234 219 58 132 203 228 109 127 151 172 199 228 224 247 266 237 265 271 198 185 253 277 203 180 187 209 230 228 215 206 202 201 206 207 207 208 202 198 200 195 190 190 191 193 190 186 184 185 193 199 198 199 197 193 191 192 191 191 198 206 204 188 135 88 92 44 47 21 345 339 343 336 325 320 315 312 311 309 307 304 300
140 116 196 221 242 270 87 74 83 193 143 132 159 186 193 200 214 226 243 262 253 253 253 189 182 242 275 248 205 194 214 246 237 212 196 196 205 213 213 212 213 208 203 203 199 195 192 186 179 177 183 189 192 200 202 198 198 197 194 194 194 194 192 196 203 201 190 176 158 179 261 60 50 334 322 322 325 315 312 309 307 308 306 304 302 299
179 184 206 207 216 212 145 132 127 146 157 173 201 211 215 213 211 229 226 220 249 252 202 157 175 223 247 254 151 160 191 243 244 214 199 206 216 218 216 218 220 218 211 206 202 198 195 187 183 191 200 200 198 203 205 203 201 198 198 198 196 197 193 191 197 196 187 182 176 181 166 105 120 279 290 296 298 298 298 293 296 302 300 299 299 296
216 216 203 188 194 201 204 194 165 166 187 206 222 218 231 235 224 240 232 217 244 240 142 151 179 215 244 258 266 241 212 221 229 227 228 237 243 239 227 221 221 223 219 212 207 201 198 198 199 205 212 207 202 207 210 207 204 202 201 199 197 197 193 188 192 190 183 180 177 176 163 146 168 229 256 271 277 276 280 280 284 290 291 292 293 292
242 202 182 184 188 199 214 221 197 191 197 207 217 217 230 245 249 251 240 237 251 225 134 150 178 230 255 250 245 240 224 218 219 225 236 246 253 258 249 234 226 224 222 218 214 208 202 204 207 211 218 214 208 211 212 209 205 202 200 198 199 199 192 186 185 183 179 177 176 177 164 158 181 220 242 254 263 266 270 273 276 281 281 280 281 283
267 235 180 182 158 180 205 230 243 244 217 213 224 233 237 251 262 259 257 264 266 204 141 151 176 226 237 181 191 207 214 221 223 224 231 242 248 254 256 247 234 227 225 222 218 213 207 208 210 212 216 214 211 209 206 203 201 199 200 198 198 198 190 183 181 179 175 173 173 175 170 171 189 213 231 244 253 259 266 269 272 274 274 273 273 274
262 264 159 154 109 170 208 232 247 262 251 220 224 236 239 247 258 265 280 303 307 291 184 179 210 234 236 221 198 204 213 218 220 220 222 236 243 245 247 241 231 226 224 220 216 213 210 211 213 213 212 211 212 204 193 191 194 196 200 199 199 198 189 181 179 175 172 172 174 177 181 183 196 217 228 237 244 252 262 267 269 271 270 271 271 271
257 250 127 158 213 208 236 254 237 248 262 214 218 238 246 251 260 265 262 153 280 273 249 218 227 238 247 253 228 218 221 214 211 213 217 228 238 239 239 233 225 222 219 215 212 212 211 212 215 215 214 213 210 198 184 184 189 193 197 199 200 198 187 178 176 172 170 170 172 178 182 188 203 220 230 235 242 251 262 264 266 270 270 270 271 271
277 271 245 254 250 204 227 270 245 239 250 247 242 252 268 256 254 259 260 247 233 253 254 223 217 228 245 250 211 206 216 215 210 212 215 220 227 231 229 223 219 218 216 212 209 212 214 216 217 215 216 216 205 191 179 177 183 189 197 201 200 197 187 178 174 172 170 169 171 179 186 197 211 223 232 238 244 251 258 262 266 270 272 272 273 273
292 278 265 261 268 159 162 242 248 228 225 248 270 283 262 254 251 239 245 256 250 254 257 227 219 231 244 242 210 205 212 215 213 210 210 212 215 221 219 215 216 215 214 212 211 214 216 219 218 215 219 216 193 176 173 172 181 188 196 201 200 198 189 179 173 171 171 172 174 180 188 202 215 225 234 237 242 250 257 263 268 272 275 278 279 278
285 277 269 229 223 251 224 238 255 239 214 231 256 254 248 257 262 254 247 253 255 258 260 250 242 243 244 242 242 235 222 215 212 204 204 208 208 212 212 211 213 212 214 217 218 219 217 221 221 219 222 214 180 169 173 175 184 191 194 196 195 192 185 176 174 172 174 179 181 183 191 207 221 229 237 241 245 252 258 265 272 276 279 281 280 279
278 269 270 252 233 253 258 248 263 272 251 234 240 244 249 251 256 261 258 254 259 262 262 264 260 254 254 246 239 241 233 222 215 205 205 209 207 207 209 212 215 214 216 219 222 226 224 224 224 220 215 197 170 164 169 174 185 190 192 194 191 188 183 179 178 177 179 183 186 192 202 217 233 239 244 249 251 256 263 272 277 277 278 278 277 277
289 268 275 274 260 258 265 271 278 283 283 272 264 261 260 258 258 263 260 252 253 259 262 268 266 263 270 245 224 234 238 230 221 211 209 212 213 213 211 211 217 218 220 220 222 228 228 227 227 217 195 182 175 170 171 174 184 189 191 193 191 191 190 186 184 183 184 186 191 200 213 231 246 249 251 254 257 262 270 276 277 277 277 276 276 277
334 277 272 273 268 268 272 275 275 271 272 274 269 265 267 267 262 261 266 267 262 265 268 267 265 265 264 239 233 244 245 236 228 220 218 222 223 222 217 214 217 220 222 223 222 224 229 231 229 207 184 188 189 178 175 178 188 192 191 192 191 192 192 189 187 186 186 190 197 208 225 244 253 257 259 260 263 269 276 279 278 278 278 276 277 277
4 270 269 274 274 276 274 270 261 253 256 263 262 261 267 273 273 270 273 279 276 270 269 264 261 263 262 246 243 250 245 234 229 225 225 229 229 226 223 219 218 219 220 223 223 224 227 228 224 212 212 226 215 176 175 186 192 190 188 190 190 190 191 189 188 190 193 198 207 220 239 254 260 263 266 266 271 279 282 281 280 280 279 277 277 276
299 268 277 283 283 284 275 265 253 241 241 268 283 283 282 282 289 293 284 277 271 262 260 260 259 263 267 250 236 243 237 220 219 226 228 230 228 227 226 222 221 219 219 222 225 225 224 222 225 228 237 250 235 172 170 182 183 182 184 186 186 186 187 188 188 193 201 208 218 236 249 257 265 269 272 276 280 284 285 284 283 283 281 278 276 274
287 275 275 273 275 280 279 281 287 276 271 288 291 288 285 283 288 296 290 277 274 270 264 262 265 272 273 263 249 247 238 224 224 228 228 228 227 228 228 225 225 224 221 224 225 226 227 224 227 233 237 244 217 168 164 168 169 174 178 179 182 182 182 184 186 191 200 212 227 244 253 261 270 276 281 285 287 286 286 286 285 284 283 281 278 276
278 268 263 261 265 271 279 287 296 295 285 283 285 282 280 280 278 276 272 266 271 277 272 271 279 283 282 277 267 257 248 241 239 232 224 224 227 230 232 228 228 227 223 225 228 230 230 225 229 236 227 197 175 157 153 159 164 169 171 173 177 175 174 177 180 187 199 214 232 247 257 266 275 281 286 288 288 288 288 287 287 287 285 284 281 279
267 265 262 263 264 267 274 282 287 285 279 280 283 281 277 276 272 264 259 261 267 272 270 273 278 281 288 292 284 273 265 261 255 243 231 227 226 227 230 230 226 222 221 224 228 232 232 231 235 231 196 168 161 152 152 160 161 164 167 169 169 168 168 171 176 189 202 216 234 249 263 273 280 286 289 289 289 290 291 290 289 288 287 285 283 281
270 268 266 268 269 271 274 279 282 282 279 277 276 275 274 272 267 262 260 261 262 262 265 271 269 265 274 282 278 274 274 271 269 267 262 255 246 234 229 228 224 221 225 227 229 232 233 233 230 207 172 161 161 159 161 163 161 162 165 163 162 164 167 169 177 191 204 219 236 253 269 279 286 289 290 291 292 293 293 292 291 289 288 286 284 283
273 269 273 276 275 275 275 277 279 278 277 275 272 271 270 267 265 264 263 262 261 261 262 265 264 260 258 263 264 266 270 272 273 276 273 268 262 247 232 228 226 226 229 231 230 229 223 216 205 182 167 167 171 170 168 167 167 167 165 163 161 162 166 171 180 192 207 225 243 262 275 282 288 290 292 293 294 295 296 294 293 292 291 289 286 284
268 272 281 281 277 274 272 273 274 272 273 274 273 272 269 267 268 265 262 260 258 260 258 255 258 262 257 256 260 262 262 260 259 260 257 253 255 248 234 227 227 228 231 229 222 210 194 185 182 181 187 188 179 173 171 171 171 169 166 165 164 165 168 174 182 194 213 236 257 270 278 286 291 292 294 295 295 297 299 298 297 296 294 292 290 287
266 273 278 275 271 270 269 269 269 273 279 277 271 267 264 261 260 258 258 257 255 258 260 255 255 260 258 256 261 262 257 252 250 250 248 247 248 242 230 224 225 224 224 214 192 178 177 180 180 187 199 196 180 175 176 173 172 171 168 166 166 166 168 175 187 203 223 248 266 273 280 290 295 295 295 296 298 302 303 302 302 301 297 295 293 291
262 267 272 270 269 270 272 274 278 284 283 271 262 258 253 249 249 254 259 260 257 257 259 258 259 264 266 267 268 263 254 248 246 244 244 245 242 231 221 220 220 211 197 182 171 170 176 181 182 179 177 182 195 197 185 176 174 172 168 167 166 165 170 180 193 211 233 257 268 276 288 295 297 297 298 300 303 307 308 308 307 305 302 298 296 293
254 257 261 263 265 268 272 277 281 273 262 261 269 270 261 259 261 264 265 265 262 259 257 260 266 271 273 273 272 267 259 253 249 247 253 258 247 233 219 207 195 178 164 160 163 165 164 167 177 170 161 189 207 189 179 175 172 168 165 164 165 168 178 190 202 221 241 265 274 280 294 298 299 301 301 302 305 309 312 313 312 308 304 300 297 293
250 249 253 256 258 264 271 273 266 257 255 267 278 278 278 278 276 274 275 273 269 266 264 263 264 267 268 269 270 267 261 259 257 266 279 271 242 228 208 181 167 159 154 155 156 157 155 158 172 185 205 228 195 177 179 175 169 166 164 164 168 173 184 197 217 235 250 270 278 287 299 300 300 303 302 303 306 310 314 316 316 313 308 302 297 292
246 247 251 253 255 260 262 258 255 260 279 285 282 284 289 282 276 279 279 275 272 273 275 272 271 272 270 269 271 266 258 257 263 270 274 268 239 219 188 164 160 156 151 151 149 144 139 141 171 237 261 257 222 200 190 177 169 167 166 168 173 179 188 206 235 257 268 273 281 294 300 299 301 303 303 305 308 310 315 318 319 317 311 303 296 291
240 244 250 251 252 256 260 261 262 271 281 283 282 307 326 303 296 301 287 280 283 292 295 293 291 290 288 286 284 277 260 258 273 264 254 233 217 207 172 151 148 143 138 138 136 130 124 133 205 276 290 277 248 217 191 174 167 166 168 172 179 184 195 217 247 273 280 279 285 296 299 299 302 303 303 307 310 313 317 319 318 316 311 305 300 296
239 239 249 254 254 257 263 269 270 268 272 274 215 154 335 324 321 316 292 287 294 334 342 331 322 315 314 309 301 294 281 264 266 258 238 200 184 173 149 137 135 135 134 133 133 136 138 142 241 290 297 279 247 213 187 172 167 169 172 176 184 191 206 230 259 284 291 288 289 296 300 300 302 304 305 308 314 317 318 318 318 317 314 308 304 301
247 243 247 253 256 259 260 264 266 264 269 279 236 230 309 348 2 317 289 284 316 10 347 338 332 326 330 326 311 295 243 246 254 244 211 178 171 166 149 139 137 137 136 135 134 136 136 135 263 283 283 268 236 203 180 170 170 174 176 178 186 198 218 245 275 300 299 293 291 295 302 303 303 305 307 310 316 319 318 318 319 319 316 312 308 305
252 250 248 249 252 254 255 261 266 265 269 283 312 335 339 344 338 282 271 283 351 347 336 339 335 327 331 333 320 291 246 253 257 227 173 167 174 169 148 138 139 139 139 135 124 119 173 205 234 257 263 258 227 191 173 171 175 177 177 178 187 201 221 244 288 310 300 291 292 297 305 309 308 309 311 313 317 319 318 318 319 319 318 316 312 307
261 260 256 256 257 257 258 261 265 267 273 296 340 348 342 323 276 256 268 319 342 330 327 337 333 327 331 333 328 308 281 277 245 142 149 173 176 154 131 127 129 127 124 114 103 102 237 225 233 257 264 251 207 180 170 174 179 177 176 178 188 201 207 223 296 303 296 295 299 306 315 318 315 314 314 315 318 319 318 317 319 320 320 317 314 310
271 268 261 259 263 266 264 264 268 271 289 21 341 339 341 294 273 281 311 328 326 322 327 330 327 328 333 329 322 316 311 303 191 143 153 170 159 134 126 125 117 111 106 103 104 126 241 248 248 241 242 223 192 176 172 179 181 175 175 180 185 187 172 153 291 290 298 306 311 318 323 323 320 318 318 319 321 321 318 317 319 321 321 318 316 315
273 272 267 262 264 268 262 258 265 270 334 0 326 326 316 270 297 317 319 314 317 324 325 323 324 328 327 320 312 309 311 301 236 147 141 142 127 114 115 108 98 99 93 89 110 119 141 271 258 230 213 201 186 177 176 183 182 174 175 178 171 160 154 147 304 296 304 313 322 326 326 325 323 321 321 323 324 322 319 318 320 322 323 322 321 322
254 248 265 270 264 266 262 256 268 296 324 324 316 309 290 293 305 308 304 305 313 320 320 317 318 315 310 308 303 300 302 292 259 144 121 118 114 110 111 104 97 98 84 61 48 76 344 270 259 229 207 190 182 180 180 183 181 174 171 167 154 148 152 149 295 301 310 320 326 328 329 327 325 323 323 325 326 324 321 321 322 324 326 328 328 328
228 231 275 283 267 268 275 278 287 299 304 299 295 293 294 296 297 295 295 297 301 310 314 312 309 307 308 306 297 290 298 288 257 152 120 119 115 108 109 111 108 102 87 70 35 25 310 274 257 229 206 182 179 183 181 182 182 174 163 154 146 141 139 129 51 318 326 331 330 330 330 327 326 327 326 326 327 327 324 323 326 330 333 335 334 333
220 224 252 268 272 277 274 269 272 278 281 282 285 290 294 299 308 306 296 290 298 308 310 311 311 309 308 305 296 289 288 276 245 147 116 121 121 112 110 111 109 109 101 74 55 33 325 269 233 219 198 178 179 181 179 182 184 171 156 146 138 129 123 109 44 350 344 340 335 331 328 328 331 332 329 327 329 329 327 326 329 335 340 340 339 338
249 245 242 245 261 275 269 261 265 271 277 284 287 287 292 307 338 330 302 303 312 310 307 312 312 308 307 302 284 267 270 268 230 149 129 130 126 118 117 114 112 110 91 67 59 48 1 245 210 202 188 177 175 176 176 180 179 166 152 141 132 125 115 92 46 13 357 346 338 333 330 332 333 330 329 331 331 332 334 333 331 335 339 339 339 340
271 274 255 249 250 258 266 273 279 280 281 285 288 293 307 326 336 320 315 321 320 312 313 315 310 309 311 296 267 236 248 281 261 148 134 132 125 118 113 108 106 103 88 72 62 48 29 355 217 201 191 181 173 172 174 173 170 163 151 137 130 126 112 87 53 22 3 349 342 339 335 333 331 328 330 333 332 333 339 340 336 335 335 335 337 340
263 254 258 263 263 264 268 274 280 282 282 286 298 313 322 328 327 321 319 323 323 323 327 324 319 323 317 297 268 185 169 241 352 71 101 122 120 110 102 100 100 98 89 70 46 31 30 25 9 193 184 174 166 167 168 164 163 163 153 138 129 124 112 95 76 38 8 354 350 346 339 332 332 332 331 331 332 334 339 340 338 338 336 333 337 344
258 255 257 263 265 266 272 281 291 295 294 293 300 306 307 315 324 321 318 320 325 333 336 325 325 339 339 320 317 276 169 151 110 95 103 110 108 102 97 92 85 77 60 35 14 14 23 27 41 121 143 144 149 156 156 155 159 161 151 139 130 123 117 110 93 57 24 14 7 354 342 335 337 336 332 330 331 333 336 338 339 342 342 339 338 347
247 253 260 263 267 273 283 291 295 298 296 294 300 310 316 318 316 313 315 320 323 332 333 319 320 337 343 316 306 296 242 130 114 113 110 109 114 106 90 72 60 49 20 2 3 13 25 40 68 100 115 121 131 140 147 153 159 158 146 137 131 127 127 119 89 61 42 32 18 355 339 337 339 337 333 333 333 333 336 339 341 345 350 350 350 352